Change the Weather History Date:

Thursday, August 21, 2014

  Actual Average (KPOE) Record (KPOE)
Temperature  
Mean Temperature 81 °F -  
Max Temperature 91 °F 89 °F 100 °F (2011)
Min Temperature 71 °F 71 °F 69 °F (1996)
Cooling Degree Days 16    
Growing Degree Days 31 (Base 50)    
Moisture  
Dew Point 74 °F    
Average Humidity 90    
Maximum Humidity 96    
Minimum Humidity 62    
Precipitation  
Precipitation 0.10 in - - ()
Sea Level Pressure  
Sea Level Pressure 30.10 in    
Wind  
Wind Speed 1 mph (South)    
Max Wind Speed 9 mph    
Max Gust Speed -    
Visibility 8 miles    
Events Rain , Thunderstorm    
Averages and records for this station are not official NWS values.
T = Trace of Precipitation, MM = Missing Value Source: NWS Daily Summary

Daily Weather History Graph

Daily Weather History Graph

Search for Another Location

Airport or City:

Trip Planner

Search our weather history database for the weather conditions in past years. The results will help you decide how hot, cold, wet, or windy it might be!

Date:

Astronomy

Aug. 21, 2014 Rise Set
Actual Time 6:40 AM CDT 7:46 PM CDT
Civil Twilight 6:15 AM CDT 8:11 PM CDT
Nautical Twilight 5:45 AM CDT 8:41 PM CDT
Astronomical Twilight 5:15 AM CDT 9:11 PM CDT
Moon 3:18 AM CDT (8/21) 5:09 PM CDT (8/21)
Length of Visible Light 13h 55m
Length of Day
13h 05m
Waning Crescent, 13% of the Moon is Illuminated
Aug 21
Waning Crescent
Aug 25
New
Sep 2
First Quarter
Sep 8
Full
Sep 15
Last Quarter

Hourly Weather History & Observations

Time (CDT) Temp. Heat Index Dew Point Humidity Pressure Visibility Wind Dir Wind Speed Gust Speed Precip Events Conditions
12:15 AM 73.4 °F - 71.8 °F 95% 30.09 in 7.0 mi Calm Calm - N/A   Mostly Cloudy
12:35 AM 73.4 °F - 72.0 °F 95% 30.08 in 7.0 mi Calm Calm - N/A   Mostly Cloudy
12:55 AM 73.4 °F - 72.0 °F 95% 30.08 in 7.0 mi Calm Calm - N/A   Mostly Cloudy
1:15 AM 73.9 °F - 72.5 °F 95% 30.07 in 10.0 mi Calm Calm - N/A   Scattered Clouds
1:35 AM 74.3 °F - 72.5 °F 94% 30.07 in 10.0 mi Calm Calm - N/A   Mostly Cloudy
1:55 AM 74.1 °F - 72.5 °F 95% 30.07 in 10.0 mi Calm Calm - N/A   Scattered Clouds
2:15 AM 73.8 °F - 72.5 °F 96% 30.06 in 10.0 mi Calm Calm - N/A   Mostly Cloudy
2:35 AM 73.4 °F - 72.0 °F 95% 30.07 in 7.0 mi Calm Calm - 0.01 in   Mostly Cloudy
2:55 AM 73.4 °F - 72.0 °F 95% 30.06 in 7.0 mi Calm Calm - 0.01 in   Scattered Clouds
3:15 AM 73.6 °F - 72.5 °F 96% 30.06 in 7.0 mi Calm Calm - N/A   Clear
3:35 AM 74.3 °F - 73.0 °F 96% 30.06 in 10.0 mi Calm Calm - N/A   Clear
3:55 AM 74.3 °F - 72.9 °F 95% 30.06 in 7.0 mi Calm Calm - N/A   Scattered Clouds
4:15 AM 74.5 °F - 73.4 °F 96% 30.06 in 7.0 mi Calm Calm - N/A   Scattered Clouds
4:35 AM 74.3 °F - 72.9 °F 95% 30.06 in 7.0 mi Calm Calm - N/A   Clear
4:55 AM 74.3 °F - 73.0 °F 96% 30.06 in 7.0 mi Calm Calm - 0.01 in   Clear
5:15 AM 74.3 °F - 72.9 °F 95% 30.06 in 7.0 mi Calm Calm - N/A   Clear
5:35 AM 74.1 °F - 72.9 °F 96% 30.06 in 7.0 mi Calm Calm - N/A   Clear
5:55 AM 74.3 °F - 72.9 °F 95% 30.07 in 7.0 mi Calm Calm - N/A   Clear
6:15 AM 73.8 °F - 72.5 °F 96% 30.08 in 7.0 mi Calm Calm - N/A   Scattered Clouds
6:35 AM 74.1 °F - 72.7 °F 95% 30.09 in 5.0 mi Calm Calm - N/A   Mostly Cloudy
6:55 AM 73.9 °F - 72.7 °F 96% 30.10 in 3.0 mi Calm Calm - 0.01 in   Mostly Cloudy
7:15 AM 74.5 °F - 73.2 °F 96% 30.10 in 4.0 mi Calm Calm - N/A   Overcast
7:35 AM 75.7 °F - 74.5 °F 96% 30.11 in 4.0 mi Calm Calm - N/A   Overcast
7:55 AM 76.6 °F - 75.2 °F 95% 30.12 in 5.0 mi Calm Calm - N/A   Overcast
8:15 AM 77.2 °F - 75.7 °F 95% 30.12 in 5.0 mi Calm Calm - N/A   Overcast
8:35 AM 78.3 °F - 76.8 °F 95% 30.12 in 7.0 mi Calm Calm - N/A   Overcast
8:55 AM 79.9 °F - 77.4 °F 92% 30.12 in 10.0 mi Calm Calm - N/A   Overcast
9:15 AM 81.5 °F 90.0 °F 78.4 °F 90% 30.12 in 10.0 mi Calm Calm - N/A   Overcast
9:35 AM 82.9 °F 93.8 °F 79.2 °F 88% 30.12 in 10.0 mi Calm Calm - N/A   Overcast
9:55 AM 85.5 °F 99.6 °F 79.7 °F 83% 30.12 in 10.0 mi Calm Calm - 0.01 in   Overcast
10:15 AM 86.9 °F 102.1 °F 79.5 °F 79% 30.13 in 10.0 mi SSE 5.8 mph - N/A   Overcast
10:35 AM 85.8 °F 99.3 °F 79.2 °F 80% 30.13 in 10.0 mi South 3.5 mph - N/A   Overcast
10:55 AM 87.1 °F 103.2 °F 80.1 °F 80% 30.13 in 10.0 mi South 4.6 mph - N/A   Overcast
11:15 AM 88.7 °F 104.0 °F 79.2 °F 73% 30.13 in 10.0 mi South 4.6 mph - N/A   Overcast
11:35 AM 89.2 °F 103.7 °F 78.4 °F 70% 30.13 in 10.0 mi SSW 5.8 mph - N/A   Overcast
12:15 PM 90.3 °F 104.2 °F 77.4 °F 66% 30.12 in 10.0 mi Calm Calm - N/A   Mostly Cloudy
12:35 PM 91.0 °F 106.2 °F 78.1 °F 66% 30.11 in 10.0 mi South 3.5 mph - N/A   Overcast
12:55 PM 91.4 °F 107.2 °F 78.8 °F 66% 30.11 in 10.0 mi Calm Calm - N/A Thunderstorm Overcast
1:15 PM 90.9 °F 103.0 °F 76.3 °F 62% 30.09 in 10.0 mi Calm Calm - N/A Thunderstorm Overcast
1:35 PM 90.3 °F 102.9 °F 76.8 °F 64% 30.09 in 10.0 mi Calm Calm - N/A Thunderstorm Mostly Cloudy
1:55 PM 90.9 °F 103.7 °F 76.5 °F 63% 30.08 in 10.0 mi Calm Calm - 0.01 in Thunderstorm Thunderstorm
2:15 PM 86.9 °F 100.4 °F 78.6 °F 76% 30.09 in 10.0 mi South 5.8 mph - N/A Thunderstorm Unknown
2:35 PM 80.6 °F 86.4 °F 75.7 °F 85% 30.11 in 1.2 mi NW 5.8 mph - N/A Rain , Thunderstorm Heavy Thunderstorms and Rain
2:55 PM 77.7 °F - 75.2 °F 92% 30.10 in 4.0 mi ENE 5.8 mph - N/A Rain , Thunderstorm Thunderstorms and Rain
3:15 PM 77.2 °F - 73.9 °F 90% 30.11 in 10.0 mi Calm Calm - N/A Rain , Thunderstorm Light Thunderstorms and Rain
3:35 PM 77.4 °F - 74.1 °F 90% 30.10 in 10.0 mi ESE 4.6 mph - N/A Thunderstorm Mostly Cloudy
3:55 PM 77.0 °F - 73.4 °F 89% 30.10 in 10.0 mi Calm Calm - N/A Thunderstorm Thunderstorm
4:15 PM 77.7 °F - 75.0 °F 91% 30.13 in 7.0 mi SW 9.2 mph - 0.01 in Rain , Thunderstorm Thunderstorms and Rain
4:35 PM 75.6 °F - 71.6 °F 87% 30.14 in 3.0 mi Calm Calm - 0.01 in Rain , Thunderstorm Thunderstorms and Rain
4:55 PM 74.3 °F - 71.8 °F 92% 30.12 in 7.0 mi Calm Calm - 0.01 in Rain , Thunderstorm Light Thunderstorms and Rain
5:15 PM 74.7 °F - 73.0 °F 95% 30.10 in 10.0 mi Calm Calm - N/A   Mostly Cloudy
5:35 PM 75.6 °F - 73.8 °F 94% 30.09 in 10.0 mi Calm Calm - N/A Thunderstorm Clear
5:55 PM 75.9 °F - 73.8 °F 93% 30.09 in 10.0 mi Calm Calm - 0.01 in   Mostly Cloudy
6:15 PM 76.1 °F - 74.3 °F 94% 30.10 in 10.0 mi Calm Calm - N/A Rain Light Rain
6:35 PM 76.1 °F - 74.3 °F 94% 30.10 in 10.0 mi Calm Calm - N/A   Mostly Cloudy
6:55 PM 76.3 °F - 74.7 °F 95% 30.10 in 7.0 mi Calm Calm - N/A   Mostly Cloudy
7:15 PM 76.1 °F - 74.5 °F 95% 30.10 in 10.0 mi Calm Calm - N/A   Overcast
7:35 PM 76.1 °F - 74.3 °F 94% 30.10 in 10.0 mi Calm Calm - N/A   Overcast
7:55 PM 75.9 °F - 73.9 °F 94% 30.10 in 10.0 mi Calm Calm - 0.01 in   Overcast
8:15 PM 75.6 °F - 73.8 °F 94% 30.09 in 10.0 mi Calm Calm - N/A   Overcast
8:35 PM 75.2 °F - 73.4 °F 94% 30.09 in 10.0 mi Calm Calm - N/A   Overcast
8:55 PM 74.8 °F - 73.4 °F 95% 30.09 in 10.0 mi Calm Calm - N/A   Overcast
9:15 PM 74.3 °F - 72.9 °F 95% 30.09 in 7.0 mi Calm Calm - N/A   Overcast
9:35 PM 73.8 °F - 72.5 °F 96% 30.10 in 7.0 mi Calm Calm - N/A   Overcast
9:55 PM 73.4 °F - 72.0 °F 95% 30.10 in 5.0 mi Calm Calm - 0.01 in   Overcast
10:15 PM 73.0 °F - 71.8 °F 96% 30.10 in 7.0 mi Calm Calm - N/A   Overcast
10:35 PM 72.7 °F - 71.6 °F 96% 30.10 in 7.0 mi Calm Calm - N/A   Overcast
11:15 PM 72.3 °F - 70.9 °F 95% 30.10 in 10.0 mi Calm Calm - N/A   Overcast
11:35 PM 71.4 °F - 70.2 °F 96% 30.10 in 5.0 mi Calm Calm - 0.01 in   Overcast
11:55 PM 71.2 °F - 70.0 °F 96% 30.10 in 2.5 mi Calm Calm - 0.01 in   Overcast